Year,Month,Day,Hour,Minute,Value (Times are PST for temperature in C)
2014,09,13,00,00,9.80
2014,09,13,00,01,9.80
2014,09,13,00,02,9.80
2014,09,13,00,03,9.80
2014,09,13,00,04,9.70
2014,09,13,00,05,9.70
2014,09,13,00,06,9.70
2014,09,13,00,07,9.70
2014,09,13,00,08,9.60
2014,09,13,00,09,9.60
2014,09,13,00,10,9.60
2014,09,13,00,11,9.60
2014,09,13,00,12,9.60
2014,09,13,00,13,9.60
2014,09,13,00,14,9.60
2014,09,13,00,15,9.50
2014,09,13,00,16,9.50
2014,09,13,00,17,9.40
2014,09,13,00,18,9.40
2014,09,13,00,19,9.40
2014,09,13,00,20,9.30
2014,09,13,00,21,9.30
2014,09,13,00,22,9.30
2014,09,13,00,23,9.30
2014,09,13,00,24,9.20
2014,09,13,00,25,9.20
2014,09,13,00,26,9.20
2014,09,13,00,27,9.20
2014,09,13,00,28,9.20
2014,09,13,00,29,9.10
2014,09,13,00,30,9.10
2014,09,13,00,31,9.10
2014,09,13,00,32,9.10
2014,09,13,00,33,9.10
2014,09,13,00,34,9.00
2014,09,13,00,35,9.00
2014,09,13,00,36,9.00
2014,09,13,00,37,9.00
2014,09,13,00,38,8.90
2014,09,13,00,39,8.90
2014,09,13,00,40,8.90
2014,09,13,00,41,8.90
2014,09,13,00,42,8.90
2014,09,13,00,43,8.80
2014,09,13,00,44,8.80
2014,09,13,00,45,8.80
2014,09,13,00,46,8.80
2014,09,13,00,47,8.80
2014,09,13,00,48,8.80
2014,09,13,00,49,8.70
2014,09,13,00,50,8.70
2014,09,13,00,51,8.70
2014,09,13,00,52,8.70
2014,09,13,00,53,8.70
2014,09,13,00,54,8.70
2014,09,13,00,55,8.70
2014,09,13,00,56,8.70
2014,09,13,00,57,8.70
2014,09,13,00,58,8.60
2014,09,13,00,59,8.60
2014,09,13,01,00,8.60
2014,09,13,01,01,8.60
2014,09,13,01,02,8.60
2014,09,13,01,03,8.60
2014,09,13,01,04,8.60
2014,09,13,01,05,8.60
2014,09,13,01,06,8.60
2014,09,13,01,07,8.60
2014,09,13,01,08,8.50
2014,09,13,01,09,8.50
2014,09,13,01,10,8.50
2014,09,13,01,11,8.50
2014,09,13,01,12,8.50
2014,09,13,01,13,8.50
2014,09,13,02,25,8.50
2014,09,13,02,26,8.40
2014,09,13,02,27,8.40
2014,09,13,02,28,8.40
2014,09,13,02,29,8.40
2014,09,13,02,30,8.40
2014,09,13,02,31,8.40
2014,09,13,02,32,8.40
2014,09,13,02,33,8.40
2014,09,13,02,34,8.40
2014,09,13,02,35,8.50
2014,09,13,02,36,8.50
2014,09,13,02,37,8.50
2014,09,13,02,38,8.50
2014,09,13,02,39,8.50
2014,09,13,02,40,8.50
2014,09,13,02,41,8.50
2014,09,13,02,42,8.50
2014,09,13,02,43,8.50
2014,09,13,02,44,8.50
2014,09,13,02,45,8.50
2014,09,13,02,46,8.50
2014,09,13,02,47,8.50
2014,09,13,02,48,8.50
2014,09,13,02,49,8.50
2014,09,13,02,50,8.60
2014,09,13,02,51,8.60
2014,09,13,02,52,8.60
2014,09,13,02,53,8.60
2014,09,13,02,54,8.60
2014,09,13,02,55,8.60
2014,09,13,02,56,8.60
2014,09,13,02,57,8.60
2014,09,13,02,58,8.60
2014,09,13,02,59,8.60
2014,09,13,03,00,8.60
2014,09,13,03,01,8.60
2014,09,13,03,02,8.60
2014,09,13,03,03,8.60
2014,09,13,03,04,8.60
2014,09,13,03,05,8.60
2014,09,13,03,06,8.60
2014,09,13,03,07,8.70
2014,09,13,03,08,8.70
2014,09,13,03,09,8.70
2014,09,13,03,10,8.80
2014,09,13,03,11,8.80
2014,09,13,03,12,8.80
2014,09,13,03,13,8.80
2014,09,13,03,14,8.80
2014,09,13,03,15,8.80
2014,09,13,03,16,8.80
2014,09,13,03,17,8.80
2014,09,13,03,18,8.90
2014,09,13,03,19,8.90
2014,09,13,03,20,8.90
2014,09,13,03,21,9.00
2014,09,13,03,22,9.00
2014,09,13,03,23,9.10
2014,09,13,03,24,9.10
2014,09,13,03,25,9.20
2014,09,13,03,26,9.20
2014,09,13,03,27,9.20
2014,09,13,03,28,9.30
2014,09,13,03,29,9.40
2014,09,13,03,30,9.40
2014,09,13,03,31,9.50
2014,09,13,03,32,9.60
2014,09,13,03,33,9.60
2014,09,13,03,34,9.60
2014,09,13,03,35,9.70
2014,09,13,03,36,9.70
2014,09,13,03,37,9.70
2014,09,13,03,38,9.80
2014,09,13,03,39,9.80
2014,09,13,03,40,9.90
2014,09,13,03,41,10.10
2014,09,13,03,42,10.20
2014,09,13,03,43,10.30
2014,09,13,03,44,10.30
2014,09,13,03,45,10.30
2014,09,13,03,46,10.40
2014,09,13,03,47,10.40
2014,09,13,03,48,10.50
2014,09,13,03,49,10.60
2014,09,13,03,50,10.70
2014,09,13,03,51,10.80
2014,09,13,03,52,10.80
2014,09,13,03,53,10.80
2014,09,13,03,54,10.80
2014,09,13,03,55,10.80
2014,09,13,03,56,10.90
2014,09,13,03,57,10.90
2014,09,13,03,58,11.00
2014,09,13,03,59,11.10
2014,09,13,04,00,11.10
2014,09,13,04,01,11.10
2014,09,13,04,02,11.20
2014,09,13,04,03,11.30
2014,09,13,04,04,11.40
2014,09,13,04,05,11.50
2014,09,13,04,06,11.50
2014,09,13,04,07,11.60
2014,09,13,04,08,11.80
2014,09,13,04,09,12.00
2014,09,13,04,10,12.20
2014,09,13,04,11,12.30
2014,09,13,04,12,12.40
2014,09,13,04,13,12.50
2014,09,13,04,14,12.60
2014,09,13,04,15,12.60
2014,09,13,04,16,12.70
2014,09,13,04,17,12.70
2014,09,13,04,18,12.80
2014,09,13,04,19,12.90
2014,09,13,04,20,12.90
2014,09,13,04,21,13.00
2014,09,13,04,22,13.10
2014,09,13,04,23,13.10
2014,09,13,04,24,13.20
2014,09,13,04,25,13.20
2014,09,13,04,26,13.20
2014,09,13,04,27,13.20
2014,09,13,04,28,13.20
2014,09,13,04,29,13.30
2014,09,13,04,30,13.40
2014,09,13,04,31,13.40
2014,09,13,04,32,13.50
2014,09,13,04,33,13.50
2014,09,13,04,34,13.60
2014,09,13,04,35,13.70
2014,09,13,04,36,13.70
2014,09,13,04,37,13.80
2014,09,13,04,38,13.80
2014,09,13,04,39,13.80
2014,09,13,04,40,13.80
2014,09,13,04,41,13.90
2014,09,13,04,42,14.00
2014,09,13,04,43,14.00
2014,09,13,04,44,14.10
2014,09,13,04,45,14.20
2014,09,13,04,46,14.20
2014,09,13,04,47,14.20
2014,09,13,04,48,14.30
2014,09,13,04,49,14.30
2014,09,13,04,50,14.40
2014,09,13,04,51,14.50
2014,09,13,04,52,14.60
2014,09,13,04,53,14.60
2014,09,13,04,54,14.60
2014,09,13,04,55,14.70
2014,09,13,04,56,14.70
2014,09,13,04,57,14.70
2014,09,13,04,58,14.70
2014,09,13,04,59,14.70
2014,09,13,05,00,14.70
2014,09,13,05,01,14.70
2014,09,13,05,02,14.70
2014,09,13,05,03,14.80
2014,09,13,05,04,14.90
2014,09,13,05,05,15.00
2014,09,13,05,06,15.00
2014,09,13,05,07,14.90
2014,09,13,05,08,14.90
2014,09,13,05,09,14.80
2014,09,13,05,10,14.70
2014,09,13,05,11,14.50
2014,09,13,05,12,14.40
2014,09,13,05,13,14.30
2014,09,13,05,14,14.20
2014,09,13,05,15,14.10
2014,09,13,05,16,14.00
2014,09,13,05,17,13.90
2014,09,13,05,18,13.80
2014,09,13,05,19,13.70
2014,09,13,05,20,13.60
2014,09,13,05,21,13.50
2014,09,13,05,22,13.40
2014,09,13,05,23,13.30
2014,09,13,05,24,13.30
2014,09,13,05,25,13.30
2014,09,13,05,26,13.30
2014,09,13,05,27,13.30
2014,09,13,05,28,13.20
2014,09,13,05,29,13.20
2014,09,13,05,30,13.10
2014,09,13,05,31,13.10
2014,09,13,05,32,13.00
2014,09,13,05,33,13.00
2014,09,13,05,34,12.90
2014,09,13,05,35,12.80
2014,09,13,05,36,12.70
2014,09,13,05,37,12.70
2014,09,13,05,38,12.60
2014,09,13,05,39,12.50
2014,09,13,05,40,12.50
2014,09,13,05,41,12.40
2014,09,13,05,42,12.40
2014,09,13,05,43,12.30
2014,09,13,05,44,12.30
2014,09,13,05,45,12.30
2014,09,13,05,46,12.30
2014,09,13,05,47,12.20
2014,09,13,05,48,12.20
2014,09,13,05,49,12.20
2014,09,13,05,50,12.20
2014,09,13,05,51,12.10
2014,09,13,05,52,12.10
2014,09,13,05,53,12.10
2014,09,13,05,54,12.00
2014,09,13,05,55,12.00
2014,09,13,05,56,11.90
2014,09,13,05,57,11.90
2014,09,13,05,58,11.90
2014,09,13,05,59,11.80
2014,09,13,06,00,11.80
2014,09,13,06,01,11.80
2014,09,13,06,02,11.80
2014,09,13,06,03,11.80
2014,09,13,06,04,11.80
2014,09,13,06,05,11.80
2014,09,13,06,06,11.80
2014,09,13,06,07,11.80
2014,09,13,06,08,11.80
2014,09,13,06,09,11.80
2014,09,13,06,10,11.80
2014,09,13,06,11,11.80
2014,09,13,06,12,11.80
2014,09,13,06,13,11.70
2014,09,13,06,14,11.70
2014,09,13,06,15,11.70
2014,09,13,06,16,11.70
2014,09,13,06,17,11.60
2014,09,13,06,18,11.60
2014,09,13,06,19,11.60
2014,09,13,06,20,11.50
2014,09,13,06,21,11.50
2014,09,13,06,22,11.40
2014,09,13,06,23,11.40
2014,09,13,06,24,11.40
2014,09,13,06,25,11.40
2014,09,13,06,26,11.30
2014,09,13,06,27,11.30
2014,09,13,06,28,11.30
2014,09,13,06,29,11.20
2014,09,13,06,30,11.20
2014,09,13,06,31,11.20
2014,09,13,06,32,11.10
2014,09,13,06,33,11.10
2014,09,13,06,34,11.10
2014,09,13,06,35,11.10
2014,09,13,06,36,11.00
2014,09,13,06,37,11.00
2014,09,13,06,38,10.90
2014,09,13,06,39,10.90
2014,09,13,06,40,10.90
2014,09,13,06,41,10.80
2014,09,13,06,42,10.80
2014,09,13,06,43,10.80
2014,09,13,06,44,10.80
2014,09,13,06,45,10.80
2014,09,13,06,46,10.70
2014,09,13,06,47,10.70
2014,09,13,06,48,10.70
2014,09,13,06,49,10.60
2014,09,13,06,50,10.60
2014,09,13,06,51,10.60
2014,09,13,06,52,10.60
2014,09,13,06,53,10.50
2014,09,13,06,54,10.50
2014,09,13,06,55,10.40
2014,09,13,06,56,10.40
2014,09,13,06,57,10.40
2014,09,13,06,58,10.40
2014,09,13,06,59,10.40
2014,09,13,07,00,10.40
2014,09,13,07,01,10.40
2014,09,13,07,02,10.40
2014,09,13,07,03,10.30
2014,09,13,07,04,10.30
2014,09,13,07,05,10.30
2014,09,13,07,06,10.30
2014,09,13,07,07,10.30
2014,09,13,07,08,10.30
2014,09,13,07,09,10.30
2014,09,13,07,10,10.30
2014,09,13,07,11,10.30
2014,09,13,07,12,10.30
2014,09,13,07,13,10.30
2014,09,13,07,14,10.30
2014,09,13,07,15,10.30
2014,09,13,07,16,10.20
2014,09,13,07,17,10.20
2014,09,13,07,18,10.20
2014,09,13,07,19,10.20
2014,09,13,07,20,10.20
2014,09,13,07,21,10.20
2014,09,13,07,22,10.20
2014,09,13,07,23,10.10
2014,09,13,07,24,10.10
2014,09,13,07,25,10.10
2014,09,13,07,26,10.00
2014,09,13,07,27,10.00
2014,09,13,07,28,10.00
2014,09,13,07,29,9.90
2014,09,13,07,30,9.90
2014,09,13,07,31,9.90
2014,09,13,07,32,9.90
2014,09,13,07,33,9.90
2014,09,13,07,34,9.80
2014,09,13,07,35,9.80
2014,09,13,07,36,9.80
2014,09,13,07,37,9.80
2014,09,13,07,38,9.80
2014,09,13,07,39,9.70
2014,09,13,07,40,9.70
2014,09,13,07,41,9.70
2014,09,13,07,42,9.70
2014,09,13,07,43,9.60
2014,09,13,07,44,9.60
2014,09,13,07,45,9.60
2014,09,13,07,46,9.60
2014,09,13,07,47,9.60
2014,09,13,07,48,9.60
2014,09,13,07,49,9.60
2014,09,13,07,50,9.60
2014,09,13,07,51,9.60
2014,09,13,07,52,9.60
2014,09,13,07,53,9.60
2014,09,13,07,54,9.60
2014,09,13,07,55,9.60
2014,09,13,07,56,9.60
2014,09,13,07,57,9.60
2014,09,13,07,58,9.60
2014,09,13,07,59,9.60
2014,09,13,08,00,9.60
2014,09,13,08,01,9.60
2014,09,13,08,02,9.60
2014,09,13,08,03,9.60
2014,09,13,08,04,9.60
2014,09,13,08,05,9.60
2014,09,13,08,06,9.60
2014,09,13,08,07,9.70
2014,09,13,08,08,9.70
2014,09,13,08,09,9.70
2014,09,13,08,10,9.70
2014,09,13,08,11,9.70
2014,09,13,08,12,9.80
2014,09,13,08,13,9.80
2014,09,13,08,14,9.80
2014,09,13,08,15,9.90
2014,09,13,08,16,9.90
2014,09,13,08,17,10.00
2014,09,13,08,18,10.00
2014,09,13,08,19,10.10
2014,09,13,08,20,10.10
2014,09,13,08,21,10.20
2014,09,13,08,22,10.20
2014,09,13,08,23,10.30
2014,09,13,08,24,10.40
2014,09,13,08,25,10.50
2014,09,13,08,26,10.70
2014,09,13,08,27,10.80
2014,09,13,08,28,11.00
2014,09,13,08,29,11.20
2014,09,13,08,30,11.40
2014,09,13,08,31,11.50
2014,09,13,08,32,11.70
2014,09,13,08,33,11.90
2014,09,13,08,34,12.00
2014,09,13,08,35,12.20
2014,09,13,08,36,12.40
2014,09,13,08,37,12.50
2014,09,13,08,38,12.70
2014,09,13,08,39,12.90
2014,09,13,08,40,13.10
2014,09,13,08,41,13.20
2014,09,13,08,42,13.40
2014,09,13,08,43,13.60
2014,09,13,08,44,13.80
2014,09,13,08,45,14.00
2014,09,13,08,46,14.20
2014,09,13,08,47,14.40
2014,09,13,08,48,14.70
2014,09,13,08,49,15.00
2014,09,13,08,50,15.00
2014,09,13,08,51,15.30
2014,09,13,08,52,15.60
2014,09,13,08,53,15.80
2014,09,13,08,54,16.00
2014,09,13,08,55,16.20
2014,09,13,08,56,16.60
2014,09,13,08,57,16.80
2014,09,13,08,58,17.00
2014,09,13,08,59,17.20
2014,09,13,09,00,17.30
2014,09,13,09,01,17.50
2014,09,13,09,02,17.70
2014,09,13,09,03,17.80
2014,09,13,09,04,18.00
2014,09,13,09,05,18.20
2014,09,13,09,06,18.40
2014,09,13,09,07,18.60
2014,09,13,09,08,18.80
2014,09,13,09,09,19.00
2014,09,13,09,10,19.10
2014,09,13,09,11,19.20
2014,09,13,09,12,19.30
2014,09,13,09,13,19.40
2014,09,13,09,14,19.50
2014,09,13,09,15,19.50
2014,09,13,09,16,19.50
2014,09,13,09,17,19.60
2014,09,13,09,18,19.60
2014,09,13,09,19,19.70
2014,09,13,09,20,19.70
2014,09,13,09,21,19.70
2014,09,13,09,22,19.80
2014,09,13,09,23,19.80
2014,09,13,09,24,19.80
2014,09,13,09,25,19.80
2014,09,13,09,26,19.80
2014,09,13,09,27,19.80
2014,09,13,09,28,19.70
2014,09,13,09,29,19.70
2014,09,13,09,30,19.70
2014,09,13,09,31,19.70
2014,09,13,09,32,19.70
2014,09,13,09,33,19.70
2014,09,13,09,34,19.70
2014,09,13,09,35,19.70
2014,09,13,09,36,19.70
2014,09,13,09,37,19.70
2014,09,13,09,38,19.70
2014,09,13,09,39,19.70
2014,09,13,09,40,19.70
2014,09,13,09,41,19.70
2014,09,13,09,42,19.70
2014,09,13,09,43,19.70
2014,09,13,09,44,19.70
2014,09,13,09,45,19.70
2014,09,13,09,46,19.70
2014,09,13,09,47,19.70
2014,09,13,09,48,19.70
2014,09,13,09,49,19.70
2014,09,13,09,50,19.70
2014,09,13,09,51,19.70
2014,09,13,09,52,19.70
2014,09,13,09,53,19.70
2014,09,13,09,54,19.70
2014,09,13,09,55,19.70
2014,09,13,09,56,19.70
2014,09,13,09,57,19.80
2014,09,13,09,58,19.80
2014,09,13,09,59,19.80
2014,09,13,10,00,19.80
2014,09,13,10,01,19.80
2014,09,13,10,02,19.80
2014,09,13,10,03,19.80
2014,09,13,10,04,19.80
2014,09,13,10,05,19.80
2014,09,13,10,06,19.90
2014,09,13,10,07,19.90
2014,09,13,10,08,19.90
2014,09,13,10,09,19.90
2014,09,13,10,10,20.00
2014,09,13,10,11,20.00
2014,09,13,10,12,20.00
2014,09,13,10,13,20.00
2014,09,13,10,14,20.00
2014,09,13,10,15,20.00
2014,09,13,10,16,20.00
2014,09,13,10,17,20.00
2014,09,13,10,18,20.00
2014,09,13,10,19,20.00
2014,09,13,10,20,20.00
2014,09,13,10,21,20.00
2014,09,13,10,22,20.00
2014,09,13,10,23,20.10
2014,09,13,10,24,20.10
2014,09,13,10,25,20.10
2014,09,13,10,26,20.10
2014,09,13,10,27,20.20
2014,09,13,10,28,20.20
2014,09,13,10,29,20.20
2014,09,13,10,30,20.30
2014,09,13,10,31,20.30
2014,09,13,10,32,20.30
2014,09,13,10,33,20.30
2014,09,13,10,34,20.30
2014,09,13,10,35,20.40
2014,09,13,10,36,20.40
2014,09,13,10,37,20.40
2014,09,13,10,38,20.40
2014,09,13,10,39,20.40
2014,09,13,10,40,20.40
2014,09,13,10,41,20.40
2014,09,13,10,42,20.40
2014,09,13,10,43,20.40
2014,09,13,10,44,20.40
2014,09,13,10,45,20.40
2014,09,13,10,46,20.40
2014,09,13,10,47,20.40
2014,09,13,10,48,20.40
2014,09,13,10,49,20.50
2014,09,13,10,50,20.50
2014,09,13,10,51,20.50
2014,09,13,10,52,20.50
2014,09,13,10,53,20.60
2014,09,13,10,54,20.60
2014,09,13,10,55,20.70
2014,09,13,10,56,20.70
2014,09,13,10,57,20.80
2014,09,13,10,58,20.80
2014,09,13,10,59,20.80
2014,09,13,11,00,20.90
2014,09,13,11,01,20.90
2014,09,13,11,02,21.00
2014,09,13,11,03,21.00
2014,09,13,11,04,21.00
2014,09,13,11,05,21.00
2014,09,13,11,06,21.00
2014,09,13,11,07,21.10
2014,09,13,11,08,21.10
2014,09,13,11,09,21.10
2014,09,13,11,10,21.10
2014,09,13,11,11,21.00
2014,09,13,11,12,21.00
2014,09,13,11,13,21.00
2014,09,13,11,14,21.10
2014,09,13,11,15,21.00
2014,09,13,11,16,21.00
2014,09,13,11,17,21.00
2014,09,13,11,18,21.10
2014,09,13,11,19,21.10
2014,09,13,11,20,21.10
2014,09,13,11,21,21.20
2014,09,13,11,22,21.20
2014,09,13,11,23,21.20
2014,09,13,11,24,21.20
2014,09,13,11,25,21.20
2014,09,13,11,26,21.20
2014,09,13,11,27,21.20
2014,09,13,11,28,21.20
2014,09,13,11,29,21.20
2014,09,13,11,30,21.20
2014,09,13,11,31,21.20
2014,09,13,11,32,21.30
2014,09,13,11,33,21.30
2014,09,13,11,34,21.30
2014,09,13,11,35,21.30
2014,09,13,11,36,21.30
2014,09,13,11,37,21.30
2014,09,13,11,38,21.30
2014,09,13,11,39,21.30
2014,09,13,11,40,21.30
2014,09,13,11,41,21.30
2014,09,13,11,42,21.40
2014,09,13,11,43,21.50
2014,09,13,11,44,21.50
2014,09,13,11,45,21.60
2014,09,13,11,46,21.60
2014,09,13,11,47,21.70
2014,09,13,11,48,21.70
2014,09,13,11,49,21.80
2014,09,13,11,50,21.80
2014,09,13,11,51,21.90
2014,09,13,11,52,21.90
2014,09,13,11,53,22.00
2014,09,13,11,54,22.10
2014,09,13,11,55,22.10
2014,09,13,11,56,22.20
2014,09,13,11,57,22.30
2014,09,13,11,58,22.30
2014,09,13,11,59,22.40
2014,09,13,12,00,22.40
2014,09,13,12,01,22.40
2014,09,13,12,02,22.30
2014,09,13,12,03,22.30
2014,09,13,12,04,22.20
2014,09,13,12,05,22.20
2014,09,13,12,06,22.20
2014,09,13,12,07,22.20
2014,09,13,12,08,22.20
2014,09,13,12,09,22.20
2014,09,13,12,10,22.20
2014,09,13,12,11,22.30
2014,09,13,12,12,22.30
2014,09,13,12,13,22.30
2014,09,13,12,14,22.30
2014,09,13,12,15,22.20
2014,09,13,12,16,22.10
2014,09,13,12,17,22.00
2014,09,13,12,18,22.00
2014,09,13,12,19,21.90
2014,09,13,12,20,22.00
2014,09,13,12,21,22.10
2014,09,13,12,22,22.10
2014,09,13,12,23,22.20
2014,09,13,12,24,22.20
2014,09,13,12,25,22.20
2014,09,13,12,26,22.30
2014,09,13,12,27,22.40
2014,09,13,12,28,22.50
2014,09,13,12,29,22.60
2014,09,13,12,30,22.60
2014,09,13,12,31,22.60
2014,09,13,12,32,22.60
2014,09,13,12,33,22.60
2014,09,13,12,34,22.60
2014,09,13,12,35,22.60
2014,09,13,12,36,22.60
2014,09,13,12,37,22.50
2014,09,13,12,38,22.50
2014,09,13,12,39,22.40
2014,09,13,12,40,22.40
2014,09,13,12,41,22.40
2014,09,13,12,42,22.30
2014,09,13,12,43,22.30
2014,09,13,12,44,22.40
2014,09,13,12,45,22.40
2014,09,13,12,46,22.50
2014,09,13,12,47,22.60
2014,09,13,12,48,22.70
2014,09,13,12,49,22.70
2014,09,13,12,50,22.70
2014,09,13,12,51,22.70
2014,09,13,12,52,22.70
2014,09,13,12,53,22.80
2014,09,13,12,54,22.80
2014,09,13,12,55,22.80
2014,09,13,12,56,22.80
2014,09,13,12,57,22.80
2014,09,13,12,58,22.80
2014,09,13,12,59,22.80
2014,09,13,13,00,22.80
2014,09,13,13,01,22.80
2014,09,13,13,02,22.80
2014,09,13,13,03,22.80
2014,09,13,13,04,22.80
2014,09,13,13,05,22.80
2014,09,13,13,06,22.80
2014,09,13,13,07,22.80
2014,09,13,13,08,22.80
2014,09,13,13,09,22.80
2014,09,13,13,10,22.90
2014,09,13,13,11,23.00
2014,09,13,13,12,23.00
2014,09,13,13,13,23.00
2014,09,13,13,14,23.00
2014,09,13,13,15,23.10
2014,09,13,13,16,23.10
2014,09,13,13,17,23.20
2014,09,13,13,18,23.20
2014,09,13,13,19,23.20
2014,09,13,13,20,23.20
2014,09,13,13,21,23.10
2014,09,13,13,22,23.10
2014,09,13,13,23,23.00
2014,09,13,13,24,22.90
2014,09,13,13,25,22.90
2014,09,13,13,26,22.80
2014,09,13,13,27,22.80
2014,09,13,13,28,22.90
2014,09,13,13,29,22.90
2014,09,13,13,30,23.00
2014,09,13,13,31,23.10
2014,09,13,13,32,23.10
2014,09,13,13,33,23.10
2014,09,13,13,34,23.20
2014,09,13,13,35,23.20
2014,09,13,13,36,23.20
2014,09,13,13,37,23.20
2014,09,13,13,38,23.20
2014,09,13,13,39,23.10
2014,09,13,13,40,23.10
2014,09,13,13,41,23.20
2014,09,13,13,42,23.20
2014,09,13,13,43,23.20
2014,09,13,13,44,23.10
2014,09,13,13,45,23.00
2014,09,13,13,46,23.00
2014,09,13,13,47,23.10
2014,09,13,13,48,23.10
2014,09,13,13,49,23.20
2014,09,13,13,50,23.20
2014,09,13,13,51,23.30
2014,09,13,13,52,23.30
2014,09,13,13,53,23.40
2014,09,13,13,54,23.50
2014,09,13,13,55,23.50
2014,09,13,13,56,23.60
2014,09,13,13,57,23.60
2014,09,13,13,58,23.60
2014,09,13,13,59,23.60
2014,09,13,14,00,23.70
2014,09,13,14,01,23.70
2014,09,13,14,02,23.60
2014,09,13,14,03,23.60
2014,09,13,14,04,23.60
2014,09,13,14,05,23.60
2014,09,13,14,06,23.70
2014,09,13,14,07,23.60
2014,09,13,14,08,23.60
2014,09,13,14,09,23.60
2014,09,13,14,10,23.70
2014,09,13,14,11,23.70
2014,09,13,14,12,23.80
2014,09,13,14,13,23.80
2014,09,13,14,14,23.80
2014,09,13,14,15,23.90
2014,09,13,14,16,23.90
2014,09,13,14,17,23.80
2014,09,13,14,18,23.80
2014,09,13,14,19,23.90
2014,09,13,14,20,23.90
2014,09,13,14,21,24.00
2014,09,13,14,22,24.00
2014,09,13,14,23,24.00
2014,09,13,14,24,24.00
2014,09,13,14,25,24.00
2014,09,13,14,26,24.00
2014,09,13,14,27,24.00
2014,09,13,14,28,24.00
2014,09,13,14,29,24.00
2014,09,13,14,30,24.00
2014,09,13,14,31,23.90
2014,09,13,14,32,23.90
2014,09,13,14,33,24.00
2014,09,13,14,34,24.10
2014,09,13,14,35,24.10
2014,09,13,14,36,24.20
2014,09,13,14,37,24.20
2014,09,13,14,38,24.20
2014,09,13,14,39,24.30
2014,09,13,14,40,24.30
2014,09,13,14,41,24.30
2014,09,13,14,42,24.30
2014,09,13,14,43,24.40
2014,09,13,14,44,24.40
2014,09,13,14,45,24.30
2014,09,13,14,46,24.30
2014,09,13,14,47,24.40
2014,09,13,14,48,24.40
2014,09,13,14,49,24.50
2014,09,13,14,50,24.50
2014,09,13,14,51,24.50
2014,09,13,14,52,24.50
2014,09,13,14,53,24.50
2014,09,13,14,54,24.40
2014,09,13,14,55,24.30
2014,09,13,14,56,24.30
2014,09,13,14,57,24.20
2014,09,13,14,58,24.20
2014,09,13,14,59,24.20
2014,09,13,15,00,24.30
2014,09,13,15,01,24.30
2014,09,13,15,02,24.30
2014,09,13,15,03,24.30
2014,09,13,15,04,24.30
2014,09,13,15,05,24.30
2014,09,13,15,06,24.30
2014,09,13,15,07,24.30
2014,09,13,15,08,24.30
2014,09,13,15,09,24.30
2014,09,13,15,10,24.30
2014,09,13,15,11,24.30
2014,09,13,15,12,24.30
2014,09,13,15,13,24.30
2014,09,13,15,14,24.30
2014,09,13,15,15,24.20
2014,09,13,15,16,24.20
2014,09,13,15,17,24.10
2014,09,13,15,18,24.10
2014,09,13,15,19,24.10
2014,09,13,15,20,24.10
2014,09,13,15,21,24.10
2014,09,13,15,22,24.10
2014,09,13,15,23,24.10
2014,09,13,15,24,24.10
2014,09,13,15,25,24.10
2014,09,13,15,26,24.20
2014,09,13,15,27,24.10
2014,09,13,15,28,24.20
2014,09,13,15,29,24.20
2014,09,13,15,30,24.20
2014,09,13,15,31,24.20
2014,09,13,15,32,24.20
2014,09,13,15,33,24.10
2014,09,13,15,34,24.10
2014,09,13,15,35,24.10
2014,09,13,15,36,24.10
2014,09,13,15,37,24.10
2014,09,13,15,38,24.20
2014,09,13,15,39,24.10
2014,09,13,15,40,24.20
2014,09,13,15,41,24.20
2014,09,13,15,42,24.20
2014,09,13,15,43,24.20
2014,09,13,15,44,24.20
2014,09,13,15,45,24.20
2014,09,13,15,46,24.30
2014,09,13,15,47,24.30
2014,09,13,15,48,24.20
2014,09,13,15,49,24.20
2014,09,13,15,50,24.10
2014,09,13,15,51,24.00
2014,09,13,15,52,24.00
2014,09,13,15,53,23.90
2014,09,13,15,54,23.90
2014,09,13,15,55,23.90
2014,09,13,15,56,23.90
2014,09,13,15,57,23.80
2014,09,13,15,58,23.80
2014,09,13,15,59,23.80
2014,09,13,16,00,23.80
2014,09,13,16,01,23.80
2014,09,13,16,02,23.80
2014,09,13,16,03,23.80
2014,09,13,16,04,23.80
2014,09,13,16,05,23.90
2014,09,13,16,06,23.90
2014,09,13,16,07,23.90
2014,09,13,16,08,23.90
2014,09,13,16,09,23.90
2014,09,13,16,10,23.80
2014,09,13,16,11,23.80
2014,09,13,16,12,23.80
2014,09,13,16,13,23.80
2014,09,13,16,14,23.80
2014,09,13,16,15,23.80
2014,09,13,16,16,23.80
2014,09,13,16,17,23.80
2014,09,13,16,18,23.80
2014,09,13,16,19,23.80
2014,09,13,16,20,23.80
2014,09,13,16,21,23.80
2014,09,13,16,22,23.80
2014,09,13,16,23,23.80
2014,09,13,16,24,23.80
2014,09,13,16,25,23.80
2014,09,13,16,26,23.80
2014,09,13,16,27,23.80
2014,09,13,16,28,23.80
2014,09,13,16,29,23.80
2014,09,13,16,30,23.80
2014,09,13,16,31,23.80
2014,09,13,16,32,23.80
2014,09,13,16,33,23.80
2014,09,13,16,34,23.80
2014,09,13,16,35,23.80
2014,09,13,16,36,23.80
2014,09,13,16,37,23.80
2014,09,13,16,38,23.80
2014,09,13,16,39,23.80
2014,09,13,16,40,23.80
2014,09,13,16,41,23.80
2014,09,13,16,42,23.80
2014,09,13,16,43,23.80
2014,09,13,16,44,23.80
2014,09,13,16,45,23.80
2014,09,13,16,46,23.80
2014,09,13,16,47,23.80
2014,09,13,16,48,23.90
2014,09,13,16,49,23.80
2014,09,13,16,50,23.80
2014,09,13,16,51,23.80
2014,09,13,16,52,23.80
2014,09,13,16,53,23.80
2014,09,13,16,54,23.80
2014,09,13,16,55,23.80
2014,09,13,16,56,23.80
2014,09,13,16,57,23.80
2014,09,13,16,58,23.80
2014,09,13,16,59,23.80
2014,09,13,17,00,23.80
2014,09,13,17,01,23.80
2014,09,13,17,02,23.80
2014,09,13,17,03,23.80
2014,09,13,17,04,23.80
2014,09,13,17,05,23.80
2014,09,13,17,06,23.80
2014,09,13,17,07,23.90
2014,09,13,17,08,23.90
2014,09,13,17,09,23.90
2014,09,13,17,10,23.90
2014,09,13,17,11,23.90
2014,09,13,17,12,23.90
2014,09,13,17,13,23.90
2014,09,13,17,14,23.90
2014,09,13,17,15,23.90
2014,09,13,17,16,23.90
2014,09,13,17,17,23.90
2014,09,13,17,18,23.90
2014,09,13,17,19,23.80
2014,09,13,17,20,23.80
2014,09,13,17,21,23.80
2014,09,13,17,22,23.80
2014,09,13,17,23,23.80
2014,09,13,17,24,23.80
2014,09,13,17,25,23.70
2014,09,13,17,26,23.70
2014,09,13,17,27,23.70
2014,09,13,17,28,23.70
2014,09,13,17,29,23.70
2014,09,13,17,30,23.70
2014,09,13,17,31,23.80
2014,09,13,17,32,23.80
2014,09,13,17,33,23.80
2014,09,13,17,34,23.80
2014,09,13,17,35,23.80
2014,09,13,17,36,23.80
2014,09,13,17,37,23.70
2014,09,13,17,38,23.70
2014,09,13,17,39,23.70
2014,09,13,17,40,23.70
2014,09,13,17,41,23.70
2014,09,13,17,42,23.70
2014,09,13,17,43,23.70
2014,09,13,17,44,23.70
2014,09,13,17,45,23.60
2014,09,13,17,46,23.60
2014,09,13,17,47,23.60
2014,09,13,17,48,23.60
2014,09,13,17,49,23.60
2014,09,13,17,50,23.50
2014,09,13,17,51,23.50
2014,09,13,17,52,23.40
2014,09,13,17,53,23.40
2014,09,13,17,54,23.40
2014,09,13,17,55,23.40
2014,09,13,17,56,23.40
2014,09,13,17,57,23.40
2014,09,13,17,58,23.40
2014,09,13,17,59,23.40
2014,09,13,18,00,23.30
2014,09,13,18,01,23.30
2014,09,13,18,02,23.30
2014,09,13,18,03,23.20
2014,09,13,18,04,23.20
2014,09,13,18,05,23.20
2014,09,13,18,06,23.20
2014,09,13,18,07,23.20
2014,09,13,18,08,23.10
2014,09,13,18,09,23.10
2014,09,13,18,10,23.10
2014,09,13,18,11,23.10
2014,09,13,18,12,23.10
2014,09,13,18,13,23.00
2014,09,13,18,14,22.90
2014,09,13,18,15,22.90
2014,09,13,18,16,22.80
2014,09,13,18,17,22.80
2014,09,13,18,18,22.70
2014,09,13,18,19,22.60
2014,09,13,18,20,22.60
2014,09,13,18,21,22.50
2014,09,13,18,22,22.50
2014,09,13,18,23,22.40
2014,09,13,18,24,22.40
2014,09,13,18,25,22.30
2014,09,13,18,26,22.20
2014,09,13,18,27,22.10
2014,09,13,18,28,22.00
2014,09,13,18,29,21.90
2014,09,13,18,30,21.90
2014,09,13,18,31,21.80
2014,09,13,18,32,21.70
2014,09,13,18,33,21.70
2014,09,13,18,34,21.60
2014,09,13,18,35,21.50
2014,09,13,18,36,21.40
2014,09,13,18,37,21.30
2014,09,13,18,38,21.20
2014,09,13,18,39,21.10